Cape Byron Observation History
Time Wind Speed Temp Pressure Rel. Hum Rain
25/11:00pm E 6-8 kts 23.6°c 1014.5 hPa 87% 0.2mm
25/10:30pm ENE 7-10 kts 24.1°c 1014.8 hPa 89% 0.2mm
25/10:00pm E 7-11 kts 24.2°c 1014.9 hPa 86% 0.2mm
25/09:30pm E 9-12 kts 24.1°c 1014.7 hPa 85% 0.2mm
25/09:00pm E 10-11 kts 24.0°c 1014.7 hPa 83% 0.2mm
25/08:30pm ESE 11-16 kts 24.4°c 1014.5 hPa 85% 0.2mm
25/08:00pm ESE 10-14 kts 24.4°c 1014.3 hPa 82% 0.2mm
25/07:30pm ESE 11-14 kts 24.5°c 1014.2 hPa 80% 0.2mm
25/07:00pm SE 12-15 kts 24.8°c 1014.2 hPa 78% 0.2mm
25/06:30pm SE 13-17 kts 24.8°c 1014.1 hPa 79% 0.2mm
25/06:00pm SE 12-14 kts 25.0°c 1014.0 hPa 77% 0.2mm
25/05:30pm ESE 14-16 kts 25.4°c 1013.8 hPa 76% 0.2mm
25/05:00pm SE 10-13 kts 25.9°c 1013.8 hPa 74% 0.2mm
25/04:30pm ESE 10-14 kts 26.5°c 1014.0 hPa 68% 0.2mm
25/04:00pm E 12-15 kts 26.2°c 1014.0 hPa 71% 0.2mm
25/03:30pm E 12-14 kts 26.9°c 1014.3 hPa 66% 0.2mm
25/03:00pm E 12-16 kts 28.7°c 1014.6 hPa 62% 0.2mm
25/02:30pm E 12-15 kts 28.7°c 1014.9 hPa 66% 0.2mm
25/02:00pm E 13-15 kts 27.8°c 1015.3 hPa 64% 0.2mm
25/01:30pm E 11-14 kts 27.5°c 1015.6 hPa 65% 0.2mm
25/01:00pm E 14-18 kts 27.7°c 1015.7 hPa 70% 0.2mm
25/12:30pm E 15-21 kts 25.7°c 1015.9 hPa 74% 0.0mm
25/12:00pm SSE 10-16 kts 24.5°c 1016.3 hPa 83% 0.0mm
25/11:30am S 7-9 kts 23.8°c 1016.8 hPa 86% 0.0mm
25/11:00am SSE 9-13 kts 24.0°c 1017.1 hPa 87% 0.0mm
25/10:30am SSW 12-14 kts 23.6°c 1017.1 hPa 87% 0.0mm
25/10:00am SSW 10-13 kts 22.9°c 1017.0 hPa 97% 0.0mm
25/09:30am SSW 9-13 kts 22.3°c 1016.8 hPa 100% 0.0mm
25/09:00am SSW 8-11 kts 21.8°c 1016.7 hPa 100% 40.0mm
25/08:30am SW 11-15 kts 21.1°c 1016.5 hPa 100% 40.0mm
25/08:00am SW 10-13 kts 20.5°c 1016.4 hPa 100% 40.0mm
25/07:30am SW 9-12 kts 20.2°c 1016.4 hPa 100% 40.0mm
25/07:00am SW 9-11 kts 19.9°c 1016.3 hPa 100% 40.0mm
25/06:30am SW 10-12 kts 19.8°c 1016.3 hPa 100% 40.0mm
25/06:00am SSW 7-10 kts 19.8°c 1016.1 hPa 100% 40.0mm
25/05:30am SW 10-12 kts 19.9°c 1015.9 hPa 100% 40.0mm
25/05:00am SW 10-12 kts 20.0°c 1015.9 hPa 100% 38.4mm
25/04:30am SW 9-11 kts 19.9°c 1015.9 hPa 100% 38.4mm
25/04:00am WSW 9-13 kts 20.0°c 1015.9 hPa 100% 38.4mm
25/03:30am WSW 10-13 kts 20.0°c 1016.4 hPa 100% 38.4mm
25/03:00am WSW 11-13 kts 20.1°c 1016.6 hPa 100% 38.2mm
25/02:30am SW 11-13 kts 20.1°c 1016.9 hPa 100% 37.6mm
25/02:00am WSW 10-13 kts 20.3°c 1017.1 hPa 100% 37.2mm
25/01:30am WSW 11-13 kts 20.2°c 1017.2 hPa 100% 37.0mm
25/01:00am WSW 10-13 kts 20.4°c 1017.6 hPa 100% 36.6mm
25/12:30am SW 7-9 kts 20.5°c 1018.1 hPa 100% 34.8mm
25/12:00am S 5-9 kts 21.2°c 1018.2 hPa 100% 34.8mm
Time Wind Speed Temp Pressure Rel. Hum Rain
24/11:30pm S 7-10 kts 21.1°c 1018.1 hPa 100% 34.8mm
24/11:00pm SSE 8-11 kts 21.1°c 1018.4 hPa 100% 34.8mm
24/10:30pm SW 10-13 kts 20.1°c 1018.4 hPa 100% 34.4mm
24/10:00pm SW 10-15 kts 20.2°c 1018.6 hPa 100% 34.2mm
24/09:30pm WSW 12-15 kts 20.1°c 1018.4 hPa 100% 34.2mm
24/09:00pm WSW 9-11 kts 20.1°c 1018.9 hPa 100% 33.4mm
24/08:30pm WNW 7-9 kts 20.3°c 1018.6 hPa 100% 26.0mm
24/08:00pm WSW 8-10 kts 20.2°c 1018.1 hPa 100% 23.2mm
24/07:30pm SW 8-10 kts 20.5°c 1018.0 hPa 100% 23.0mm
24/07:00pm SSE 7-9 kts 21.4°c 1017.8 hPa 100% 22.0mm
24/06:30pm SSE 12-16 kts 21.3°c 1017.4 hPa 99% 22.0mm
24/06:00pm S 13-16 kts 21.5°c 1017.3 hPa 93% 21.8mm
24/05:30pm S 10-14 kts 21.7°c 1017.3 hPa 97% 21.8mm
24/05:00pm E 13-17 kts 22.4°c 1017.0 hPa 87% 21.6mm
24/04:30pm E 11-16 kts 22.7°c 1016.9 hPa 95% 21.6mm
24/04:00pm E 13-18 kts 21.9°c 1016.8 hPa 100% 21.6mm
24/03:30pm E 10-15 kts 21.7°c 1017.1 hPa 100% 21.6mm
24/03:00pm E 11-16 kts 21.9°c 1017.4 hPa 100% 18.6mm
24/02:30pm NNE 9-13 kts 21.0°c 1017.9 hPa 100% 17.4mm
24/02:00pm NNE 12-20 kts 21.7°c 1018.2 hPa 100% 9.2mm
24/01:30pm SSW 10-13 kts 22.1°c 1017.9 hPa 100% 1.6mm
24/01:00pm SSW 10-12 kts 21.8°c 1018.2 hPa 100% 1.6mm
24/12:30pm SW 8-10 kts 21.8°c 1018.7 hPa 100% 1.6mm
24/12:00pm SSW 10-13 kts 21.9°c 1018.8 hPa 100% 1.6mm
24/11:30am S 12-13 kts 21.6°c 1019.0 hPa 100% 1.6mm
24/11:00am SSW 10-12 kts 21.4°c 1019.2 hPa 100% 1.6mm
24/10:30am SW 9-12 kts 20.9°c 1019.5 hPa 100% 1.6mm
24/10:00am SSW 9-12 kts 20.8°c 1019.8 hPa 100% 0.2mm
24/09:30am WSW 10-12 kts 20.6°c 1019.4 hPa 100% 0.0mm
24/09:00am WSW 12-15 kts 20.3°c 1018.9 hPa 100% 3.0mm
24/08:30am W 11-16 kts 20.0°c 1019.1 hPa 100% 3.0mm
24/08:00am WNW 9-15 kts 20.0°c 1019.0 hPa 100% 2.8mm
24/07:30am SW 10-11 kts 19.7°c 1018.6 hPa 100% 2.8mm
24/07:00am W 10-12 kts 19.7°c 1018.5 hPa 100% 2.8mm
24/06:30am SSW 9-11 kts 19.9°c 1018.1 hPa 100% 2.6mm
24/06:00am SW 9-11 kts 20.1°c 1018.0 hPa 100% 2.6mm
24/05:30am SSW 7-9 kts 20.1°c 1017.8 hPa 100% 2.6mm
24/05:00am WSW 6-8 kts 20.3°c 1018.0 hPa 100% 2.6mm
24/04:30am S 5-7 kts 20.4°c 1017.7 hPa 100% 2.6mm
24/04:00am WSW 9-12 kts 19.9°c 1017.9 hPa 100% 2.4mm
24/03:30am WSW 11-13 kts 19.8°c 1018.1 hPa 100% 2.4mm
24/03:00am WSW 10-13 kts 19.7°c 1018.4 hPa 100% 2.4mm
24/02:30am WSW 9-11 kts 20.0°c 1018.7 hPa 100% 2.4mm
24/02:00am SW 7-11 kts 20.1°c 1018.9 hPa 100% 2.4mm
24/01:30am W 5-7 kts 20.7°c 1019.1 hPa 100% 2.4mm
24/01:00am S 7-16 kts 20.8°c 1019.7 hPa 100% 0.4mm
24/12:30am SW 6-8 kts 20.3°c 1019.8 hPa 100% 0.2mm
24/12:00am SSW 5-7 kts 20.4°c 1020.2 hPa 100% 0.2mm
Time Wind Speed Temp Pressure Rel. Hum Rain
23/11:30pm SW 7-11 kts 20.2°c 1020.4 hPa 100% 0.2mm
23/11:00pm SW 8-11 kts 20.4°c 1020.3 hPa 100% 0.2mm
23/10:30pm SW 12-16 kts 20.3°c 1020.6 hPa 100% 0.2mm
23/10:00pm SSW 10-17 kts 20.5°c 1020.4 hPa 99% 0.2mm
23/09:30pm SW 13-17 kts 20.5°c 1020.2 hPa 99% 0.0mm
23/09:00pm SSW 14-18 kts 21.1°c 1020.2 hPa 97% 0.0mm
23/08:30pm SSE 12-16 kts 23.1°c 1020.2 hPa 88% 0.0mm
23/08:00pm SE 15-18 kts 23.4°c 1019.8 hPa 79% 0.0mm
23/07:30pm ESE 15-19 kts 23.2°c 1019.7 hPa 77% 0.0mm
23/07:00pm ESE 15-20 kts 23.3°c 1019.7 hPa 79% 0.0mm
23/06:30pm ESE 19-23 kts 23.2°c 1019.5 hPa 80% 0.0mm
23/06:00pm ESE 17-21 kts 23.3°c 1019.6 hPa 81% 0.0mm
23/05:44pm SSE 11-19 kts 23.2°c 1019.7 hPa 84% 0.0mm
23/05:30pm SSW 7-9 kts 21.9°c 1019.8 hPa 89% 0.0mm
23/05:00pm SSE 15-19 kts 22.4°c 1019.8 hPa 84% 0.0mm
23/04:30pm ESE 17-22 kts 23.6°c 1019.3 hPa 78% 0.0mm
23/04:00pm ESE 20-27 kts 23.8°c 1019.3 hPa 77% 0.0mm
23/03:48pm ESE 17-24 kts 23.9°c 1019.3 hPa 78% 0.0mm
23/03:30pm SE 13-17 kts 24.2°c 1019.8 hPa 73% 0.0mm
23/03:00pm ESE 15-18 kts 24.3°c 1020.2 hPa 68% 0.0mm
23/02:30pm SE 16-21 kts 24.4°c 1020.6 hPa 69% 0.0mm
23/02:00pm ESE 19-23 kts 24.1°c 1020.7 hPa 71% 0.0mm
23/01:30pm ESE 19-23 kts 24.6°c 1021.1 hPa 71% 0.0mm
23/01:00pm E 15-20 kts 25.2°c 1021.3 hPa 65% 0.0mm
23/12:30pm E 14-17 kts 24.2°c 1021.5 hPa 68% 0.0mm
23/12:00pm E 14-21 kts 25.4°c 1021.6 hPa 61% 0.0mm
23/11:30am ESE 19-22 kts 25.1°c 1021.8 hPa 58% 0.0mm
23/11:00am ESE 17-23 kts 24.5°c 1021.8 hPa 66% 0.0mm
23/10:30am ESE 18-21 kts 24.7°c 1021.8 hPa 64% 0.0mm
23/10:00am ESE 19-23 kts 24.9°c 1021.7 hPa 61% 0.0mm
23/09:30am ESE 18-22 kts 25.1°c 1021.7 hPa 62% 0.0mm
23/09:00am ESE 17-21 kts 24.3°c 1021.7 hPa 64% 0.0mm
23/08:30am ESE 20-26 kts 24.8°c 1021.4 hPa 64% 0.0mm
23/08:00am ESE 20-25 kts 24.3°c 1021.1 hPa 68% 0.0mm
23/07:30am ESE 21-25 kts 23.5°c 1020.8 hPa 70% 0.0mm
23/07:22am ESE 20-24 kts 23.7°c 1020.8 hPa 70% 0.0mm
23/07:00am SSE 14-20 kts 22.9°c 1020.9 hPa 71% 0.0mm
23/06:30am SSE 18-23 kts 21.0°c 1020.8 hPa 83% 0.0mm
23/06:23am SSE 17-25 kts 21.4°c 1020.8 hPa 85% 0.0mm
23/06:09am ESE 24-30 kts 21.8°c 1020.2 hPa 85% 0.0mm
23/06:00am ESE 24-31 kts 22.0°c 1019.9 hPa 84% 0.0mm
23/05:58am ESE 23-31 kts 22.4°c 1019.6 hPa 81% 0.0mm
23/05:30am SE 18-23 kts 23.6°c 1019.9 hPa 69% 0.0mm
23/05:00am ESE 16-22 kts 23.5°c 1019.8 hPa 66% 0.0mm
23/04:30am ESE 18-22 kts 23.5°c 1019.8 hPa 70% 0.0mm
23/04:00am ESE 18-23 kts 23.5°c 1019.9 hPa 68% 0.0mm
23/03:30am ESE 18-23 kts 23.6°c 1020.2 hPa 65% 0.0mm
23/03:00am ESE 17-20 kts 23.6°c 1020.4 hPa 65% 0.0mm
23/02:30am ESE 17-20 kts 23.5°c 1020.6 hPa 70% 0.0mm
23/02:00am E 20-24 kts 23.5°c 1020.7 hPa 69% 0.0mm
23/01:30am ESE 20-25 kts 23.7°c 1020.6 hPa 69% 0.0mm
23/01:00am ESE 18-24 kts 23.7°c 1020.8 hPa 63% 0.0mm
23/12:30am E 19-24 kts 23.6°c 1020.9 hPa 62% 0.0mm
23/12:00am E 20-24 kts 23.5°c 1021.2 hPa 62% 0.0mm